Regional Weather Roundup
Issued by NWS Cleveland, OH

Home | Current Version | Previous Version | Text Only | Print | Product List | Glossary Off
Versions: 1 2 3 4 5 6 7 8 9 10 11 12 13 14 15 16 17 18 19 20 21 22 23 24 25 26 27 28 29 30 31 32 33 34 35 36 37 38 39 40 41 42 43 44 45 46 47 48 49 50

000
ASUS41 KCLE 270002
RWRCLE
OHIO REGIONAL WEATHER ROUNDUP
NATIONAL WEATHER SERVICE CLEVELAND, OH
800 PM EDT WED APR 26 2017

NOTE: "FAIR" INDICATES FEW OR NO CLOUDS BELOW 12,000 FEET WITH NO
SIGNIFICANT WEATHER AND/OR OBSTRUCTIONS TO VISIBILITY.

OHZ001>008-015>018-024>027-034-035-043-044-270100-
   NORTHWEST OHIO

CITY           SKY/WX    TMP DP  RH WIND       PRES   REMARKS
DEFIANCE       MOCLDY    78  58  49 S8        29.51F
FINDLAY        CLEAR     80  54  40 S14       29.54F
TOLEDO EXPRESS CLEAR     80  57  45 S7        29.52F
TOLEDO EXEC    CLEAR     80  57  45 S9        29.53F
LIMA           CLEAR     78  57  48 S12       29.56S
$$

OHZ009>014-019>023-028>033-038-089-270100-
   NORTHEAST OHIO

CITY           SKY/WX    TMP DP  RH WIND       PRES   REMARKS
CLE-HOPKINS    PTCLDY    80  51  36 S14G21    29.62R
CLE-LAKEFRONT  CLEAR     80  51  36 S16G22    29.58R
CUY CO. ARPT   PTCLDY    79  55  44 S12       29.62R
LORAIN-ELYRIA  CLEAR     77  51  40 S10       29.59S
ASHTABULA      CLEAR     74  56  53 SE10      29.64R
AKRON-CANTON   PTCLDY    77  51  40 S16       29.64S
WOOSTER        CLEAR     74  54  49 S10       29.63S
MANSFIELD      CLEAR     77  50  38 S10       29.62R
YOUNGSTOWN     PTCLDY    75  54  47 S8        29.66S
$$

OHZ042-051>053-060>062-070>072-077>081-270100-
  SOUTHWEST OHIO

CITY           SKY/WX    TMP DP  RH WIND       PRES   REMARKS
CINC-COVINGTON CLOUDY    76  52  43 S13       29.59R
CINC-LUNKEN    CLOUDY    76  53  44 S10       29.59R
HAMILTON       CLOUDY    80  54  40 S9G20     29.57F
DAYTON         CLOUDY    78  53  41 S14       29.58F
WRIGHT-PAT AFB CLOUDY    78  51  39 S9        29.58S
DAYTON GENERAL CLOUDY    76  52  43 S10       29.58S
WILMINGTON     CLOUDY    75  49  39 S10       29.60F
$$

OHZ036-037-039>041-045>050-054>059-063>069-073>076-082>088-270100-
  CENTRAL AND SOUTHEAST OHIO

CITY           SKY/WX    TMP DP  RH WIND       PRES   REMARKS
COLUMBUS       MOCLDY    81  50  33 S9        29.60S
OSU AIRPORT    CLEAR     80  53  39 S12       29.59S
BOLTON FIELD   NOT AVBL
RICKENBACK AFB CLEAR     78  51  39 S9        29.60S
NEWARK         CLEAR     79  50  36 S8        29.62R
MARION         CLEAR     79  46  31 S15       29.59S
LANCASTER      CLEAR     78  52  40 S8        29.63R
ZANESVILLE     CLEAR     77  50  38 S7        29.64S
NEW PHILLY     NOT AVBL
$$




USA.gov is the U.S. government's official web portal to all federal, state and local government web resources and services.